{"data":{"norad_id":59688,"epoch":"2026-09-21T18:42:33.698016Z","epoch_age_seconds":60715,"freshness":"FRESH","line1":"1 59688U 24086G   26264.77955669  .00000831  00000+0  39713-4 0  9998","line2":"2 59688  43.0032  21.9259 0000866 291.6228  68.4531 15.27578896134225","mean_motion":15.27578896,"eccentricity":8.66e-5,"inclination_deg":43.0032,"raan_deg":21.9259,"arg_perigee_deg":291.6228,"mean_anomaly_deg":68.4531,"bstar":3.9713e-5,"rev_number":13422,"period_min":94.266816841387,"perigee_km":482.45822281261,"apogee_km":483.646580817,"semimajor_km":6861.1894018148,"source":"CELESTRAK","updated_at":"2026-09-22T09:00:49.032856Z"}}